Weather in Borozenskoe

Ukraine / Kherson District     47°10′41″N   33°25′12″E
temp.,
°C
wind,
m/s
gust,
m/s
humid.,
%
clouds,
%
prec.,
mm/h
press.,
hPa
HPBL,
m
12 may, wed
wed1200:00+8nne46771 0.0 101599
03:00+6nne49895 0.0 1014211
06:00+5n379459 0.0 1014220
09:00+9nne4574100 0.1 1014560
12:00+12n546094 0.2 10131261
15:00+14n325492 0.4 10131321
18:00+14nw225065 0.1 10121506
21:00+9nne33745 0.1 101326
13 may, thu
thu1300:00+8e118019 0.0 101310
03:00+7se11815 0.0 101210
06:00+8ese22807 0.0 101327
09:00+14ese34595 0.0 1013639
12:00+19ese4451100 0.0 10121066
15:00+21se3549100 0.0 10111606
18:00+21se565498 0.0 10101154
21:00+15se497470 0.0 1010147
14 may, fri
fri1400:00+12se468681 0.0 1010108
03:00+11s34935 0.0 101049
06:00+12sw11845 0.0 101010
09:00+17ssw3558100 0.0 1010451
12:00+22s5645100 0.0 1010897
15:00+24s5844100 0.0 10101849
18:00+22ssw6755100 0.0 1010964
21:00+16sw477651 0.0 1011111
15 may, sat
sat1500:00+14wsw358198 0.0 101180
03:00+13sw46799 0.0 101290
06:00+13sw3486100 0.0 101278
09:00+18wsw456991 0.0 1013453
12:00+23wsw454939 0.0 10131632
15:00+24wsw344056 0.0 10122136
18:00+23sse1143100 0.0 10121342
21:00+19ese235799 0.0 101243
16 may, sun
sun1600:00+16se337399 0.0 101239
03:00+15ene3480100 0.0 101257
06:00+15ene4983100 0.0 1011203
09:00+20ene71162100 0.0 1011559
12:00+24ene8105364 0.0 10101014
15:00+26ene89465 0.0 10081575
18:00+25ne5105483 0.1 10061041
21:00+21ne51274100 0.9 1006333